Temp
-12 -13 -13 -14 -14 -14 -13 -14 -14 -14 -14 -15 -14 -15 -15 -15 -15 -15 -15 -14 -13 -13 -13 -13 -13 -13 -13 -13 -13 -13 -13 -13 -13 -13 -13 -13 -14 -14 -14 -14 -14 -14 -14
-12 -13 -13 -14 -14 -14 -14 -14 -13 -14 -14 -14 -14 -15 -15 -14 -15 -14 -16 -15 -14 -13 -13 -13 -13 -13 -13 -13 -13 -13 -13 -13 -13 -14 -14 -14 -14 -14 -14 -14 -14 -14 -14
-12 -13 -13 -14 -14 -14 -14 -14 -13 -13 -14 -14 -14 -14 -14 -14 -14 -14 -15 -14 -13 -13 -13 -13 -13 -13 -13 -14 -13 -13 -14 -13 -14 -14 -14 -14 -14 -14 -14 -14 -14 -14 -14
-12 -13 -13 -13 -14 -14 -13 -13 -14 -14 -15 -14 -14 -14 -14 -13 -13 -14 -14 -14 -13 -13 -13 -13 -13 -13 -14 -14 -14 -14 -14 -14 -14 -15 -14 -14 -14 -14 -14 -14 -15 -14 -15
-11 -12 -13 -13 -13 -13 -13 -13 -14 -14 -14 -14 -14 -14 -14 -14 -14 -13 -14 -13 -13 -13 -13 -13 -13 -14 -14 -14 -14 -14 -15 -14 -14 -15 -15 -15 -15 -15 -15 -15 -15 -15 -16
-12 -12 -13 -13 -13 -13 -13 -13 -13 -13 -14 -15 -14 -14 -14 -13 -14 -14 -13 -13 -13 -13 -13 -13 -13 -14 -14 -14 -14 -15 -14 -15 -15 -15 -15 -15 -15 -15 -16 -16 -16 -16 -16
-12 -12 -12 -12 -13 -13 -13 -13 -13 -14 -14 -14 -14 -14 -14 -14 -14 -14 -14 -13 -14 -14 -14 -14 -14 -14 -15 -15 -15 -15 -15 -15 -16 -16 -16 -16 -16 -16 -16 -17 -17 -17 -17
-12 -12 -12 -12 -12 -13 -13 -13 -14 -14 -14 -14 -14 -14 -14 -14 -14 -14 -14 -14 -14 -14 -14 -14 -14 -14 -14 -15 -15 -15 -16 -16 -16 -16 -16 -17 -17 -17 -17 -18 -18 -18 -18
-12 -12 -12 -13 -13 -13 -13 -13 -13 -13 -13 -13 -13 -13 -13 -13 -14 -14 -14 -14 -14 -14 -14 -14 -14 -15 -15 -15 -16 -16 -16 -17 -17 -18 -18 -18 -19 -19 -19 -19 -20 -20 -20
-12 -12 -13 -13 -13 -13 -13 -13 -13 -13 -14 -14 -13 -13 -13 -13 -13 -14 -14 -14 -14 -14 -15 -15 -16 -16 -16 -17 -17 -17 -18 -18 -18 -19 -19 -19 -20 -20 -20 -20 -20 -20 -21
-13 -13 -13 -13 -13 -13 -14 -14 -14 -14 -13 -14 -14 -14 -14 -14 -13 -14 -14 -15 -15 -15 -15 -16 -16 -16 -17 -17 -18 -18 -19 -19 -20 -20 -21 -21 -21 -21 -21 -21 -21 -22 -21
-13 -13 -13 -13 -14 -13 -14 -14 -14 -14 -14 -14 -14 -14 -14 -14 -14 -14 -14 -15 -15 -15 -16 -16 -17 -17 -18 -18 -19 -20 -20 -20 -20 -21 -21 -21 -21 -22 -22 -22 -22 -22 -22
-13 -13 -13 -14 -14 -13 -13 -14 -14 -14 -14 -14 -14 -14 -14 -14 -14 -14 -15 -15 -15 -16 -16 -16 -17 -18 -18 -19 -19 -20 -20 -20 -21 -21 -21 -21 -22 -22 -22 -22 -22 -22 -22
-13 -13 -13 -13 -14 -13 -13 -14 -14 -14 -14 -14 -14 -14 -14 -14 -15 -15 -15 -15 -16 -16 -17 -17 -17 -18 -18 -19 -19 -20 -20 -21 -21 -21 -21 -22 -22 -22 -22 -22 -22 -22 -22
-13 -13 -13 -13 -14 -14 -14 -14 -14 -14 -14 -14 -14 -14 -15 -15 -15 -15 -15 -16 -16 -16 -17 -17 -18 -18 -19 -19 -20 -20 -21 -21 -21 -22 -22 -22 -22 -22 -22 -23 -23 -23 -23
-13 -13 -13 -13 -14 -14 -14 -14 -14 -14 -14 -14 -14 -15 -15 -14 -15 -15 -15 -16 -16 -17 -17 -18 -18 -19 -20 -20 -21 -21 -21 -22 -22 -22 -22 -22 -22 -22 -23 -23 -23 -23 -23
-14 -13 -13 -14 -14 -14 -14 -14 -14 -14 -14 -14 -14 -14 -14 -15 -15 -16 -16 -16 -17 -17 -17 -18 -18 -19 -20 -21 -21 -21 -22 -22 -22 -22 -22 -22 -22 -23 -23 -23 -23 -23 -23
-13 -13 -13 -14 -14 -14 -14 -14 -14 -14 -14 -14 -14 -15 -15 -15 -16 -16 -16 -17 -17 -17 -18 -18 -18 -18 -19 -20 -20 -21 -21 -22 -22 -22 -22 -22 -22 -23 -23 -23 -23 -23 -24
-14 -14 -14 -14 -14 -14 -14 -14 -14 -14 -14 -14 -15 -15 -15 -16 -16 -16 -16 -17 -17 -18 -18 -18 -18 -18 -18 -19 -20 -20 -21 -21 -22 -21 -22 -22 -22 -23 -23 -23 -23 -24 -26
-14 -14 -14 -15 -15 -15 -15 -14 -14 -14 -14 -15 -15 -15 -16 -16 -16 -16 -17 -17 -17 -17 -18 -18 -18 -18 -18 -19 -20 -21 -21 -21 -22 -22 -22 -22 -23 -23 -23 -23 -24 -26 -27
-14 -14 -14 -15 -15 -15 -15 -14 -14 -14 -15 -15 -16 -16 -16 -17 -16 -17 -17 -17 -17 -18 -18 -18 -18 -18 -19 -19 -19 -20 -21 -22 -22 -22 -22 -22 -23 -23 -24 -24 -25 -26 -28
-14 -15 -15 -15 -15 -15 -14 -14 -14 -14 -15 -16 -16 -16 -17 -17 -17 -18 -18 -17 -17 -18 -18 -18 -18 -19 -19 -19 -19 -20 -21 -22 -22 -22 -22 -23 -23 -23 -24 -24 -25 -26 -27
-14 -14 -14 -15 -15 -15 -14 -14 -14 -15 -15 -16 -16 -16 -17 -17 -18 -18 -17 -17 -18 -18 -18 -18 -19 -19 -19 -19 -19 -20 -20 -21 -22 -22 -22 -23 -23 -23 -24 -24 -25 -25 -26
-14 -14 -15 -15 -15 -15 -14 -14 -15 -15 -16 -16 -16 -17 -17 -17 -18 -17 -17 -17 -17 -18 -18 -18 -19 -19 -19 -20 -20 -20 -20 -21 -21 -22 -22 -22 -23 -23 -24 -24 -24 -25 -25
-14 -15 -15 -15 -15 -15 -14 -14 -15 -15 -16 -16 -16 -17 -17 -17 -17 -17 -17 -17 -17 -18 -18 -18 -19 -19 -19 -20 -20 -20 -20 -20 -21 -22 -22 -23 -23 -23 -23 -24 -24 -24 -24
-15 -15 -15 -15 -15 -15 -14 -15 -15 -15 -16 -16 -16 -17 -17 -17 -17 -17 -17 -17 -17 -18 -18 -18 -19 -19 -19 -20 -20 -20 -20 -21 -21 -21 -22 -22 -23 -23 -23 -24 -24 -24 -24
Height
5727 5724 5721 5718 5716 5713 5712 5709 5707 5704 5702 5702 5706 5713 5717 5720 5722 5724 5724 5729 5731 5735 5739 5744 5747 5748 5750 5750 5752 5753 5754 5754 5753 5753 5752 5752 5752 5752 5750 5750 5750 5748 5747
5725 5721 5718 5716 5714 5711 5709 5707 5703 5699 5696 5693 5699 5708 5714 5717 5721 5722 5722 5723 5726 5730 5734 5740 5743 5745 5744 5746 5746 5747 5747 5747 5746 5746 5746 5745 5745 5744 5743 5741 5739 5737 5736
5723 5719 5717 5715 5712 5709 5707 5705 5702 5698 5695 5696 5701 5706 5712 5715 5719 5720 5722 5723 5725 5728 5732 5737 5740 5741 5740 5742 5742 5742 5741 5741 5740 5739 5738 5737 5735 5734 5733 5731 5729 5726 5723
5721 5718 5716 5714 5710 5707 5705 5704 5702 5700 5700 5701 5704 5707 5711 5715 5717 5719 5720 5720 5724 5728 5730 5732 5734 5736 5736 5737 5736 5737 5735 5734 5733 5732 5731 5728 5726 5725 5723 5720 5717 5714 5712
5720 5717 5715 5714 5711 5708 5705 5704 5703 5703 5703 5705 5707 5709 5711 5714 5715 5716 5718 5719 5722 5726 5728 5730 5732 5732 5732 5731 5731 5730 5730 5728 5727 5724 5721 5718 5715 5713 5711 5707 5705 5702 5700
5718 5716 5715 5714 5712 5710 5709 5706 5703 5704 5706 5707 5707 5710 5712 5714 5715 5717 5720 5722 5724 5726 5727 5728 5727 5727 5728 5727 5726 5723 5722 5720 5717 5713 5710 5707 5704 5702 5699 5696 5692 5690 5687
5716 5715 5714 5714 5713 5712 5711 5708 5706 5706 5707 5709 5710 5712 5714 5716 5717 5719 5721 5722 5724 5724 5724 5724 5723 5723 5722 5721 5719 5715 5712 5708 5706 5703 5700 5697 5693 5689 5685 5681 5678 5674 5670
5713 5714 5713 5713 5713 5713 5712 5711 5709 5709 5709 5711 5712 5713 5715 5717 5718 5719 5720 5721 5721 5722 5721 5720 5720 5717 5715 5712 5709 5707 5704 5700 5696 5692 5688 5683 5678 5674 5670 5667 5663 5659 5655
5710 5711 5712 5712 5713 5712 5712 5712 5712 5711 5711 5712 5713 5714 5715 5716 5717 5718 5718 5719 5718 5717 5717 5715 5714 5712 5709 5706 5702 5697 5694 5690 5685 5680 5674 5670 5665 5660 5656 5652 5648 5644 5641
5706 5709 5709 5710 5711 5711 5712 5713 5712 5713 5713 5713 5713 5714 5714 5715 5716 5716 5716 5716 5714 5713 5712 5709 5706 5703 5699 5695 5691 5687 5682 5677 5671 5665 5661 5655 5651 5646 5641 5637 5633 5630 5626
5703 5706 5707 5708 5709 5710 5711 5712 5713 5713 5714 5714 5714 5714 5714 5714 5714 5713 5713 5712 5710 5708 5706 5702 5698 5694 5690 5685 5679 5673 5668 5663 5658 5652 5647 5642 5637 5632 5628 5623 5619 5614 5611
5700 5703 5704 5705 5707 5708 5709 5710 5711 5712 5712 5713 5713 5712 5712 5712 5712 5711 5709 5707 5705 5702 5698 5694 5689 5685 5679 5674 5668 5663 5659 5654 5649 5643 5638 5633 5627 5622 5617 5612 5607 5603 5599
5697 5699 5701 5703 5704 5706 5707 5709 5710 5710 5711 5711 5711 5711 5711 5710 5708 5706 5704 5702 5698 5695 5691 5687 5684 5679 5674 5669 5663 5658 5652 5647 5641 5636 5630 5624 5619 5613 5608 5603 5598 5592 5588
5693 5696 5698 5701 5702 5704 5706 5707 5708 5709 5710 5710 5710 5710 5708 5707 5705 5703 5700 5697 5695 5692 5689 5685 5681 5677 5672 5666 5659 5653 5646 5640 5634 5628 5622 5616 5611 5605 5600 5594 5589 5584 5579
5690 5693 5696 5698 5701 5702 5704 5706 5707 5708 5709 5709 5708 5706 5705 5704 5702 5700 5697 5695 5692 5690 5687 5683 5679 5674 5668 5661 5653 5646 5639 5633 5627 5621 5615 5609 5603 5597 5591 5585 5580 5575 5569
5687 5690 5693 5696 5698 5701 5702 5704 5705 5707 5707 5706 5705 5704 5702 5701 5699 5697 5695 5694 5692 5689 5686 5682 5676 5670 5662 5654 5647 5640 5633 5627 5620 5614 5608 5602 5595 5589 5583 5577 5571 5565 5559
5683 5687 5690 5694 5696 5699 5701 5702 5703 5703 5703 5703 5702 5701 5700 5699 5698 5696 5695 5693 5691 5688 5684 5679 5673 5666 5657 5649 5641 5634 5627 5621 5614 5608 5601 5594 5587 5580 5573 5567 5561 5555 5548
5680 5684 5688 5691 5694 5697 5699 5700 5701 5701 5701 5701 5700 5699 5699 5698 5697 5696 5694 5693 5689 5685 5680 5676 5670 5662 5653 5644 5637 5631 5624 5617 5610 5603 5596 5588 5580 5572 5565 5559 5551 5543 5535
5677 5681 5686 5689 5692 5695 5697 5698 5698 5698 5699 5698 5698 5698 5698 5697 5697 5695 5694 5691 5687 5683 5678 5673 5667 5660 5652 5643 5636 5629 5622 5615 5607 5599 5590 5582 5573 5565 5559 5551 5542 5533 5523
5673 5678 5682 5686 5690 5693 5695 5695 5696 5696 5697 5697 5698 5698 5697 5697 5696 5695 5692 5689 5685 5681 5676 5671 5665 5658 5651 5642 5634 5627 5620 5612 5604 5595 5586 5577 5569 5560 5553 5544 5534 5524 5513
5671 5677 5681 5685 5689 5691 5692 5693 5694 5695 5696 5697 5697 5697 5697 5696 5695 5694 5691 5687 5683 5679 5674 5669 5664 5657 5649 5641 5633 5625 5617 5609 5601 5592 5583 5574 5565 5556 5548 5538 5529 5519 5508
5669 5675 5679 5683 5687 5688 5690 5691 5692 5694 5695 5697 5697 5697 5697 5695 5694 5692 5689 5686 5682 5677 5673 5667 5662 5656 5648 5640 5632 5624 5616 5607 5599 5590 5581 5572 5563 5554 5545 5536 5526 5516 5506
5667 5672 5676 5680 5683 5686 5687 5689 5690 5692 5694 5695 5696 5696 5695 5694 5693 5690 5687 5684 5680 5676 5671 5666 5660 5654 5647 5640 5632 5623 5615 5606 5598 5590 5581 5572 5563 5553 5544 5535 5526 5516 5507
5664 5669 5673 5677 5680 5683 5685 5686 5689 5691 5692 5693 5694 5694 5694 5693 5691 5689 5686 5683 5679 5675 5670 5665 5659 5653 5646 5639 5632 5623 5615 5606 5598 5590 5581 5572 5563 5554 5545 5536 5527 5519 5512
5661 5667 5671 5675 5678 5681 5682 5684 5686 5689 5691 5692 5692 5693 5692 5691 5689 5687 5685 5682 5679 5674 5670 5664 5658 5652 5645 5638 5631 5623 5615 5607 5599 5590 5582 5573 5564 5555 5547 5538 5530 5522 5515
5659 5664 5668 5672 5676 5678 5680 5682 5684 5687 5689 5690 5691 5691 5690 5690 5688 5686 5684 5682 5678 5674 5669 5664 5657 5651 5644 5637 5630 5623 5616 5608 5600 5592 5583 5575 5566 5558 5549 5541 5532 5525 5518
Wind_Speed
15 13 12 13 14 11 16 15 15 19 22 25 28 21 22 19 25 23 25 22 12 13 17 13 20 19 22 23 22 23 23 24 26 27 29 30 30 33 36 38 40 40 40
11 9 8 9 12 11 11 13 10 17 15 14 25 21 18 16 16 13 17 14 17 15 12 21 17 22 22 23 26 25 23 23 23 23 26 26 30 36 41 41 41 40 40
8 6 8 11 13 12 11 8 10 15 1 14 17 16 17 14 11 11 16 19 19 20 19 17 19 21 19 20 23 23 23 23 22 24 28 30 32 37 38 39 40 41 43
6 5 8 11 12 9 9 6 5 5 6 12 12 14 13 12 12 12 17 11 10 20 17 18 19 18 18 22 24 24 24 26 25 28 30 33 36 39 40 43 45 46 48
4 4 6 8 11 14 8 6 9 4 8 14 12 11 13 11 10 12 3 9 11 14 16 17 20 22 22 24 24 25 26 28 31 33 37 39 40 44 46 47 48 49 49
3 3 4 4 7 11 12 15 7 7 8 12 16 11 7 10 16 6 6 10 12 15 18 22 24 25 24 25 27 28 31 35 37 40 41 42 44 46 47 47 47 48 47
5 3 2 3 5 5 7 9 14 8 8 8 8 6 4 5 6 7 7 8 11 14 15 16 17 21 24 27 31 33 36 37 39 41 42 43 43 44 45 46 48 49 49
8 5 3 1 1 3 5 6 9 10 10 6 5 4 4 6 6 6 8 11 14 14 15 18 22 25 28 31 32 35 37 39 40 42 44 45 46 48 49 50 51 51 51
9 8 6 4 2 1 2 3 4 8 9 8 6 5 3 1 2 4 6 9 12 15 19 22 25 28 31 33 36 38 40 41 42 43 44 45 47 48 48 49 49 50 51
10 10 7 6 4 3 3 2 1 1 1 3 3 1 2 4 6 8 11 14 17 19 22 24 27 29 31 34 36 39 41 43 44 44 45 46 47 48 49 50 50 49 50
13 12 9 8 7 6 5 4 5 4 3 4 3 3 4 5 7 9 11 14 17 20 23 26 29 32 35 38 39 40 41 41 41 43 44 46 47 48 49 50 49 48 48
14 13 11 10 9 7 6 6 5 3 2 2 2 3 4 6 9 11 13 16 19 22 25 28 30 30 30 29 28 27 28 29 30 31 32 32 32 33 35 37 40 42 43
15 15 13 11 10 7 7 6 5 4 3 2 4 5 7 8 10 13 17 20 23 24 24 23 23 25 27 29 29 29 30 31 32 32 31 30 31 31 32 33 34 34 34
17 15 14 12 11 8 7 7 7 5 4 3 4 6 8 10 12 15 18 18 18 17 16 20 25 27 29 31 31 32 32 33 32 31 31 31 31 32 32 33 34 34 35
17 16 14 12 11 10 10 9 7 5 3 4 6 8 9 11 14 14 14 14 14 17 21 25 29 30 31 33 35 34 33 33 32 31 30 30 31 30 31 32 33 34 34
18 16 14 13 12 11 9 7 5 3 4 5 6 7 10 11 10 12 12 12 14 18 22 25 30 34 37 32 33 36 34 33 32 32 32 33 34 34 34 35 35 36 36
21 18 15 14 13 11 8 5 3 3 4 5 5 7 6 7 8 9 10 12 14 17 20 24 32 38 40 35 32 33 33 32 31 31 33 34 35 35 34 35 36 37 39
22 19 17 16 14 11 8 6 4 4 3 2 3 4 5 6 7 8 9 11 14 17 21 25 33 39 41 35 30 28 28 28 30 32 33 35 36 35 34 35 39 41 42
23 20 18 17 14 13 10 6 5 4 1 2 4 4 5 6 5 7 7 9 14 18 23 26 32 38 40 35 27 29 29 31 34 36 36 34 35 33 32 36 41 42 42
26 24 23 21 19 14 8 5 6 3 5 7 6 7 5 5 6 5 6 11 15 20 23 27 30 35 38 36 31 33 34 35 38 39 40 36 34 32 32 37 37 39 40
26 24 24 23 18 13 7 7 6 6 10 9 9 9 5 5 4 5 9 12 17 21 24 28 30 33 36 36 35 34 35 36 37 38 39 36 35 33 34 37 36 37 37
29 30 28 23 17 11 8 7 7 12 11 8 8 8 8 5 4 7 11 14 18 22 25 28 30 32 34 36 36 35 35 35 36 38 38 36 36 35 35 37 37 36 35
35 32 28 23 17 11 7 7 13 13 11 7 6 5 6 8 6 8 11 15 20 23 26 28 29 31 33 35 36 36 36 37 36 37 38 37 37 38 37 36 36 36 34
37 33 28 22 17 11 7 9 16 13 11 7 5 3 5 6 6 9 13 18 21 24 26 27 29 30 31 33 35 36 37 38 37 38 38 39 39 38 38 37 35 34 33
39 33 27 21 16 11 7 11 16 12 11 6 3 1 3 4 7 11 14 18 20 23 26 28 29 30 31 32 33 35 36 38 39 39 39 39 40 41 39 38 38 36 33
38 33 28 21 17 11 8 12 17 12 9 5 2 1 0 3 8 11 13 16 19 22 25 29 30 30 31 32 32 33 35 37 38 40 40 40 40 40 41 40 38 37 35
Wind_Direction
312 313 315 300 289 294 304 310 294 290 284 258 230 231 227 216 230 248 265 223 209 210 198 235 249 252 265 279 279 272 265 256 256 253 253 254 261 268 273 275 277 277 277
314 334 346 329 319 315 308 316 299 306 286 273 199 214 205 206 236 254 279 284 236 222 225 220 234 278 263 272 270 267 264 258 253 251 255 259 265 270 271 270 270 273 275
324 9 6 342 335 324 312 319 324 344 14 170 186 204 201 207 224 254 272 275 238 214 232 257 255 262 248 253 259 260 261 260 263 266 265 266 265 266 268 274 277 279 283
318 0 6 348 346 343 352 360 11 358 123 162 178 194 195 204 228 251 263 248 208 231 224 246 253 242 242 252 257 255 264 267 271 271 271 271 274 277 279 281 282 284 285
303 346 17 9 37 36 52 47 36 101 159 171 174 179 189 205 235 218 245 186 190 214 222 242 238 242 243 246 250 257 266 272 273 276 278 279 282 283 285 286 286 285 284
261 314 4 21 36 41 45 48 64 85 166 174 162 153 167 230 245 230 196 195 214 225 231 232 233 237 247 259 265 272 274 278 278 282 289 291 288 286 286 286 285 283 282
230 246 308 13 44 41 30 59 62 83 102 161 174 190 183 209 207 186 217 235 244 245 252 255 260 264 269 271 273 278 282 287 289 289 288 287 285 284 284 283 282 282 282
222 217 216 200 28 42 47 66 88 87 86 121 143 143 150 179 202 236 245 251 253 257 268 275 276 278 282 286 289 289 289 289 288 286 284 285 285 285 284 284 284 284 283
218 217 204 197 211 213 12 52 80 105 109 100 91 92 89 53 303 299 300 294 294 292 290 289 287 286 287 287 285 285 285 286 287 288 288 288 287 287 288 287 287 286 285
214 218 205 205 220 213 208 224 267 12 96 130 141 168 265 292 299 301 295 289 289 288 287 288 290 293 295 295 295 295 295 295 295 292 290 288 287 287 286 286 285 283 283
208 214 206 211 222 228 231 225 213 205 236 253 255 269 293 302 303 300 298 296 296 298 302 303 301 299 301 303 302 300 298 296 296 294 291 289 287 287 288 287 287 288 287
205 210 208 215 218 229 232 237 238 230 220 259 296 290 290 300 312 315 311 310 313 313 310 310 312 313 314 317 318 320 320 319 317 315 313 310 308 304 302 299 295 295 294
202 208 204 213 214 212 225 218 205 205 212 235 272 301 317 319 316 319 321 326 325 326 332 336 342 345 342 337 332 327 323 320 317 315 315 313 310 309 306 303 300 298 296
199 204 200 206 209 201 206 204 202 214 226 260 311 321 314 316 323 330 335 337 344 354 10 13 5 355 346 338 332 327 322 321 320 318 317 315 312 310 308 306 304 303 300
193 196 195 197 203 194 192 200 210 224 256 306 305 311 319 337 342 346 350 5 24 30 18 10 1 350 341 335 332 330 329 327 326 325 323 322 320 318 314 311 308 304 302
185 188 191 192 197 194 191 204 214 242 283 288 297 316 342 347 353 3 19 38 28 17 10 3 357 350 348 339 332 332 331 330 328 327 326 323 320 318 315 314 313 310 306
184 187 184 186 191 189 187 199 217 236 260 280 312 346 7 7 15 42 53 38 23 11 2 0 358 355 352 348 336 332 333 332 330 327 325 324 321 320 318 316 313 310 305
183 185 184 182 179 178 179 175 198 223 242 294 359 47 30 34 64 64 48 28 17 13 9 5 4 1 358 354 351 351 350 348 344 341 338 333 328 323 321 321 318 315 312
180 182 180 176 173 167 162 171 184 174 148 92 103 69 63 76 92 59 30 20 16 11 8 4 5 3 2 359 351 352 354 355 355 353 349 342 337 331 326 322 321 321 319
182 183 176 170 167 168 170 178 165 144 135 131 95 82 82 96 77 35 30 17 10 7 4 3 0 0 1 3 357 348 346 348 349 351 351 349 347 341 337 334 336 335 336
183 177 170 163 164 162 165 162 153 147 146 125 96 80 83 91 68 26 13 11 8 6 1 360 360 360 1 3 2 356 351 350 352 353 354 356 356 353 350 349 348 346 344
177 171 167 164 159 146 141 153 152 154 150 129 90 75 67 75 35 8 6 9 7 3 0 359 358 358 360 2 4 2 359 358 357 357 359 360 1 2 360 1 360 357 355
176 171 167 163 156 142 141 150 157 156 152 123 98 66 50 36 4 357 9 10 7 4 1 359 357 357 359 1 2 4 6 6 4 3 4 4 5 6 7 5 7 9 7
174 170 167 163 157 147 142 155 160 160 153 127 99 64 27 3 7 26 23 15 9 4 2 1 358 357 356 358 0 3 7 10 9 8 8 9 9 8 9 11 10 9 13
173 171 167 164 158 148 146 162 163 158 161 140 116 86 5 5 39 34 25 14 8 6 6 4 0 360 359 356 357 0 5 9 11 11 11 11 11 11 10 10 12 14 15
175 172 169 165 159 147 148 169 168 164 165 160 133 161 76 47 49 39 25 18 14 11 8 7 8 6 3 360 356 356 1 6 9 12 13 13 12 12 12 10 10 11 10